Dewpoint
15 6 12 14 12 10 9 12 12 12 13 13 13 13 14 14 14 13 12 11 9 8 12 12 10 12 11 9 11 10 10 10 10 10 10 9 8 4 -5 -6 9 10 5
15 9 12 15 14 11 15 13 12 12 14 13 13 13 13 13 13 12 11 9 3 10 13 13 9 4 5 5 5 6 8 9 8 8 7 7 -2 -8 -6 -5 -3 -0 3
15 15 9 15 15 14 12 14 12 14 14 13 13 13 12 11 10 8 6 2 13 12 14 13 11 6 5 1 -1 -3 -1 0 1 1 7 9 -4 -6 -4 -2 -0 2 0
15 15 13 13 15 15 13 14 14 14 14 13 12 11 9 7 3 -1 -1 10 13 13 13 12 11 3 -5 -7 -7 -5 -4 -5 -4 6 10 11 11 2 2 1 1 2 3
14 14 14 5 15 15 13 13 14 14 13 13 12 9 5 -3 -9 -7 -1 10 13 12 13 12 6 -5 -5 -3 -0 1 1 2 5 10 12 11 11 3 4 5 9 7 5
14 14 14 9 13 14 14 14 14 14 14 14 12 6 -5 -10 -9 -7 -5 4 9 9 5 2 -5 -0 1 2 3 4 5 5 10 11 11 9 10 1 3 8 11 11 12
13 14 11 8 8 7 15 14 14 14 14 14 11 4 -9 -9 -9 -8 -4 1 4 3 -2 -2 2 4 4 3 3 4 4 6 11 11 11 10 1 -1 -3 4 5 10 12
13 14 12 9 3 3 10 11 14 14 14 13 10 2 -7 -8 -8 -7 -5 -2 -2 -2 2 5 5 3 2 1 1 1 2 2 11 10 7 6 -2 -3 -3 -3 1 9 10
14 14 14 6 2 3 3 5 13 14 13 13 10 4 -5 -5 -5 -4 -3 -2 1 5 11 9 5 3 2 1 0 -0 -2 -2 8 3 4 5 -5 5 5 0 7 8 9
14 14 13 13 4 3 0 2 8 11 13 13 12 6 -3 -2 -2 0 1 5 5 8 11 10 5 4 3 3 2 -1 -3 -4 2 -3 3 -1 10 9 9 11 10 10 10
15 14 13 13 12 12 13 5 7 13 14 13 13 10 -1 -2 -1 1 5 7 7 11 11 9 4 4 4 4 3 -1 -5 -1 2 5 7 7 9 9 10 10 10 10 10
15 15 14 13 12 13 13 11 9 12 13 13 13 9 5 11 7 5 5 5 9 11 9 6 4 4 5 4 3 -1 -2 -2 3 7 9 8 8 9 8 8 9 9 8
14 16 14 14 13 13 13 13 12 12 12 13 13 13 12 11 12 11 11 2 5 7 6 4 4 4 5 4 4 1 -3 -4 4 6 8 8 8 7 5 4 1 5 4
13 14 12 12 14 13 13 13 13 13 12 11 12 13 12 12 12 12 12 11 10 11 11 5 4 4 4 5 5 2 -2 -2 3 5 7 3 6 3 -0 0 -4 -3 -1
14 11 11 11 12 14 14 14 14 13 13 12 12 12 12 12 12 12 12 12 12 12 11 9 5 3 4 4 5 4 -1 -1 3 5 7 -5 -6 -3 -4 -6 -8 -8 -9
14 14 11 12 12 12 13 14 15 14 13 12 12 12 12 12 12 12 12 12 12 13 12 10 8 5 3 3 5 5 1 -2 2 3 6 -3 -5 -7 -8 -8 -8 -10 -12
10 12 14 13 11 11 12 13 15 14 14 13 12 12 12 12 12 11 12 12 13 12 12 11 8 5 3 3 5 5 3 -1 -1 0 4 2 -9 -9 -9 -9 -11 -12 -13
4 5 8 12 14 13 13 14 14 14 14 14 13 13 13 12 12 11 11 11 11 12 11 11 8 7 6 5 5 5 5 -0 -1 -1 1 2 -2 -7 -10 -11 -12 -13 -16
2 3 3 5 10 13 14 13 10 13 14 14 14 14 13 13 13 12 12 12 11 12 11 11 9 9 6 5 5 5 5 1 -3 -2 -3 -5 -1 0 -7 -11 -12 -14 -16
-0 0 1 2 3 7 11 13 8 6 10 13 13 13 14 13 13 13 12 12 12 11 12 10 8 8 7 6 6 5 6 1 -2 -3 -5 -6 -5 -8 -5 -12 -13 -14 -15
-1 -0 1 1 1 2 4 8 10 5 2 5 11 13 14 13 13 13 12 12 12 12 12 11 8 8 8 7 6 5 4 3 -3 -3 -6 -5 -8 -11 -11 -12 -11 -11 -13
-3 -2 -1 0 1 1 1 3 7 10 2 1 3 8 10 11 11 13 12 10 11 11 12 11 9 8 8 8 7 6 2 1 -1 -6 -6 -6 -7 -10 -11 -11 -10 -9 -9
-2 -5 -4 -2 -1 -1 -0 1 3 8 11 11 8 6 7 9 11 13 14 12 12 12 12 11 10 9 7 8 8 6 3 1 -1 -3 -7 -7 -8 -9 -11 -11 -10 -9 -8
-2 -6 -5 -5 -5 -5 -4 -3 -1 4 9 11 11 11 8 6 6 7 14 12 11 11 11 9 10 9 8 8 8 7 6 1 -2 -3 -4 -6 -8 -8 -10 -10 -9 -8 -8
0 -4 -5 -6 -3 -2 -5 -5 -4 -1 4 9 10 11 11 11 7 4 10 13 12 11 9 9 10 9 9 8 9 8 8 5 -0 -2 -4 -4 -6 -8 -9 -9 -9 -8 -8
2 -2 -3 -5 -5 -4 -4 -4 -4 -2 4 7 9 10 10 11 11 12 11 12 12 12 10 9 9 10 10 9 10 9 8 8 7 2 -3 -3 -4 -5 -6 -8 -8 -8 -7
Wind_Speed
14 15 17 15 14 14 13 11 8 8 8 7 5 3 5 4 2 1 2 2 3 6 10 10 6 5 6 4 4 3 1 1 1 3 4 7 9 9 6 6 11 4 7
18 17 18 16 14 15 15 11 10 10 10 7 4 3 2 3 2 0 1 1 3 7 9 9 9 8 6 3 1 2 3 2 2 4 6 8 6 5 5 5 3 7 7
17 17 17 18 16 14 14 12 9 12 8 6 7 6 6 2 1 1 3 8 8 8 11 8 5 5 4 2 2 2 2 2 4 8 13 6 6 6 6 7 7 8 8
17 16 16 18 16 15 15 15 12 11 9 8 6 5 2 1 2 5 9 12 10 11 10 5 2 4 5 7 9 8 8 9 9 12 8 7 7 6 7 8 8 8 8
16 14 15 16 15 14 15 16 13 11 9 6 5 2 2 3 5 9 11 14 11 8 7 3 1 4 7 8 9 8 9 9 11 10 6 6 4 4 5 6 6 7 7
15 14 16 15 16 15 12 12 13 11 9 9 5 3 3 5 7 8 10 9 10 7 5 3 4 6 7 7 7 7 8 9 12 6 6 7 1 4 3 5 9 5 7
15 13 13 16 14 14 13 12 13 11 10 9 5 5 5 6 7 8 10 9 9 8 7 7 6 5 5 5 5 6 7 8 10 5 4 5 4 3 2 2 2 1 2
14 12 13 14 13 12 12 11 13 12 11 9 7 6 7 7 8 9 11 10 10 9 8 8 5 4 4 5 5 5 5 6 6 3 3 2 3 3 2 0 2 3 5
13 13 11 12 12 11 11 12 12 14 11 9 9 7 9 9 9 9 10 10 10 9 7 5 3 3 3 4 4 4 4 5 5 1 3 1 5 3 2 3 3 4 6
12 14 11 11 10 10 11 14 15 16 13 12 9 7 8 10 10 10 10 8 9 8 6 3 1 2 2 2 2 2 3 3 1 3 3 1 4 5 5 6 4 3 3
12 11 12 11 10 10 9 12 15 14 13 12 11 10 10 8 9 10 11 10 9 9 8 5 3 3 2 1 1 1 1 1 2 1 1 3 4 5 7 8 6 6 4
16 15 13 12 11 11 10 10 12 13 15 13 13 12 11 9 9 8 11 12 11 11 9 7 6 5 4 2 1 1 2 1 1 3 6 5 6 7 6 7 8 9 9
14 17 16 12 12 12 11 10 11 11 13 14 12 11 12 12 14 13 13 14 14 12 10 9 8 7 5 5 4 3 3 2 2 3 7 9 8 9 7 7 8 10 9
14 15 17 18 14 13 12 12 11 12 13 14 16 16 14 16 17 14 14 11 11 12 10 10 9 10 9 7 6 5 5 2 3 4 10 13 13 10 8 8 9 7 6
13 14 15 16 17 15 15 13 13 13 14 14 15 18 18 17 17 18 16 15 16 15 12 12 11 12 11 10 9 7 6 4 5 5 10 12 13 12 10 8 7 5 3
12 13 14 16 16 17 18 18 15 13 14 15 16 17 20 19 18 17 19 21 20 17 14 14 13 14 12 13 12 10 8 7 7 7 10 10 13 12 9 8 7 5 5
15 14 14 16 18 19 18 20 19 17 18 17 17 18 19 21 20 19 19 23 21 24 18 15 14 15 15 15 14 13 11 9 10 10 10 12 11 12 10 10 9 8 7
13 14 15 16 17 19 20 21 19 19 20 18 18 18 20 22 22 21 21 26 25 23 22 17 18 19 18 18 16 15 14 14 12 11 13 12 10 11 13 13 11 10 9
18 18 18 17 18 19 20 24 26 25 22 19 19 19 21 23 23 23 23 25 26 25 23 24 23 22 21 21 18 17 15 15 14 14 15 15 14 13 11 14 14 11 11
19 19 20 20 20 20 20 24 27 28 30 28 23 23 23 24 27 26 26 24 25 22 25 28 26 25 24 22 20 19 18 17 16 17 15 17 17 18 18 14 14 15 13
15 16 18 19 20 22 24 25 30 34 33 33 35 28 26 27 27 29 31 27 28 29 30 29 27 29 29 25 21 20 19 19 20 20 18 19 20 20 20 19 16 17 15
15 17 17 18 20 22 24 26 27 29 37 39 39 40 41 39 35 31 34 35 35 34 32 32 31 33 32 32 29 18 11 17 23 24 22 23 22 22 22 21 21 20 20
6 11 18 21 22 23 25 24 27 26 27 28 33 39 42 43 40 32 35 36 36 35 37 36 34 37 38 35 33 25 10 12 14 20 27 27 25 25 25 25 24 23 22
5 4 5 8 14 20 25 28 29 27 28 30 29 30 33 36 40 40 35 38 40 39 41 40 39 39 39 40 35 36 30 14 11 10 19 28 28 28 28 27 26 26 25
7 7 7 7 8 11 14 18 25 30 30 27 27 27 27 31 35 39 36 37 42 40 43 42 41 42 42 42 42 40 39 34 24 18 15 20 26 31 30 28 28 27 26
9 11 12 12 12 12 14 14 16 21 23 24 24 24 24 25 27 29 32 35 39 41 43 46 45 44 44 43 45 43 44 42 41 36 27 23 24 25 28 30 29 28 27
Wind_Direction
158 172 158 158 159 161 159 161 155 144 142 146 157 197 209 220 249 296 5 2 11 117 117 98 118 121 83 141 156 171 121 104 18 5 0 351 344 349 12 49 67 29 49
158 170 161 151 153 153 154 166 153 145 144 145 143 170 231 249 250 341 84 348 109 136 131 124 106 83 82 97 133 231 246 278 317 343 352 350 357 15 43 60 68 49 62
154 164 163 154 156 155 162 151 150 146 158 173 191 211 248 219 172 129 141 118 111 151 135 134 106 48 47 57 88 84 96 74 58 70 62 30 37 49 57 56 61 50 62
154 159 164 161 161 164 167 159 161 160 171 186 217 208 204 123 97 123 139 137 136 134 144 135 49 22 70 96 101 99 95 93 94 89 80 70 16 48 62 62 57 55 58
155 154 180 169 164 165 166 173 174 175 184 196 191 184 146 124 122 138 146 159 163 158 164 193 338 81 96 99 98 96 94 95 94 73 79 102 40 37 70 67 49 54 53
152 157 196 169 165 170 165 161 165 172 183 175 187 168 144 139 134 143 148 158 173 161 151 160 120 103 100 98 96 95 88 87 77 80 50 65 41 58 70 78 67 59 78
152 171 190 174 172 167 167 164 166 178 181 192 201 173 153 146 139 138 146 146 153 151 148 135 122 107 96 93 93 95 91 91 89 76 60 59 21 38 46 106 86 159 162
158 164 181 170 169 174 172 165 174 180 189 208 200 181 161 158 152 146 148 152 150 146 144 137 124 112 104 98 98 97 90 94 80 81 64 345 2 341 325 298 121 245 262
163 160 173 176 174 174 182 183 179 185 194 198 197 197 173 165 159 153 151 149 150 147 142 137 118 119 117 111 105 101 98 92 104 169 72 347 350 16 44 129 170 236 266
169 166 171 175 184 181 186 188 192 186 195 200 201 213 196 174 170 166 163 164 161 160 174 180 166 137 121 113 105 104 99 95 36 25 29 2 70 78 90 135 162 190 281
178 178 177 181 179 175 185 189 177 182 196 208 219 214 206 201 187 177 183 183 178 191 198 207 216 203 194 183 129 90 29 73 37 87 238 114 167 155 151 170 185 242 266
182 178 183 186 186 180 185 210 189 191 198 210 212 212 198 192 204 199 217 199 197 209 215 221 228 228 242 261 247 274 47 305 103 111 238 178 216 209 221 237 252 263 278
199 196 194 192 193 191 192 199 191 200 201 206 227 221 199 208 206 212 231 216 220 221 229 230 234 237 229 233 264 271 250 218 179 149 236 194 231 240 244 255 271 270 280
205 209 211 190 199 202 199 198 203 203 207 207 207 211 221 216 228 213 220 225 214 227 215 225 234 238 242 247 256 257 272 244 171 167 251 211 230 255 263 262 273 265 268
216 219 216 214 206 206 207 214 208 215 216 215 213 210 209 223 238 231 225 235 220 226 217 227 226 240 245 246 251 257 255 241 192 182 254 220 231 247 259 255 251 250 250
228 230 235 223 224 228 218 217 215 218 223 220 219 219 214 214 217 224 238 230 231 229 218 226 230 234 235 243 248 253 251 238 209 198 247 238 228 239 242 235 235 236 236
232 232 229 245 232 231 233 227 229 222 225 225 226 227 221 219 218 220 225 234 223 230 228 231 228 229 229 237 241 247 248 240 232 214 215 257 231 231 230 228 232 231 237
232 232 230 229 241 241 229 233 225 235 236 235 234 230 231 227 226 222 219 246 233 233 232 227 229 235 239 241 238 241 243 241 236 225 217 221 246 235 222 227 230 235 240
244 244 242 237 234 234 242 247 245 235 236 241 240 233 233 235 230 230 227 230 246 228 222 231 235 237 239 238 235 241 242 242 233 226 229 225 218 230 232 226 231 237 239
248 246 244 243 244 237 240 247 254 250 246 239 239 241 237 235 241 232 231 223 250 237 223 235 233 236 238 238 234 239 243 238 236 234 228 232 227 222 226 233 232 238 242
252 249 246 242 239 238 236 237 256 258 255 250 243 236 237 237 238 239 239 232 222 234 234 243 234 237 234 229 229 235 241 241 236 235 228 234 231 231 231 240 237 245 242
255 251 250 247 246 243 245 238 244 260 260 258 253 248 247 248 247 237 247 246 242 240 234 241 237 235 235 232 229 231 234 247 242 235 233 231 233 235 234 237 239 242 250
281 261 249 245 244 241 243 244 242 243 251 260 260 255 254 251 245 238 240 249 245 236 242 244 243 239 240 234 229 222 204 222 235 238 231 234 230 235 237 238 242 245 248
350 334 297 277 263 258 256 253 250 244 245 245 249 261 267 262 255 247 239 246 249 249 247 249 246 247 239 241 233 228 227 206 200 215 235 233 232 233 240 242 244 247 250
331 321 314 303 297 287 274 267 257 250 245 249 251 255 253 261 264 260 248 241 248 247 253 253 244 248 244 240 240 236 232 230 228 223 228 234 233 235 239 241 247 247 249
317 307 301 297 294 291 288 289 281 262 247 253 254 255 254 255 259 263 261 249 246 247 250 254 253 253 251 243 242 239 240 236 234 232 230 237 240 242 238 238 242 246 250
Height
1516 1515 1518 1520 1522 1525 1527 1529 1531 1532 1534 1535 1536 1537 1537 1538 1539 1539 1539 1539 1539 1540 1541 1541 1541 1541 1542 1542 1543 1543 1544 1544 1545 1546 1547 1546 1546 1546 1547 1547 1547 1548 1546
1516 1516 1518 1521 1523 1526 1528 1530 1532 1533 1535 1537 1537 1538 1538 1538 1539 1540 1540 1540 1540 1542 1542 1543 1543 1544 1543 1543 1544 1544 1545 1545 1546 1547 1547 1547 1547 1547 1548 1548 1547 1547 1547
1518 1518 1519 1522 1525 1527 1529 1532 1533 1534 1536 1537 1538 1538 1538 1538 1539 1540 1540 1541 1542 1543 1544 1544 1545 1545 1545 1545 1545 1545 1546 1547 1547 1548 1550 1550 1549 1549 1549 1549 1549 1549 1549
1520 1520 1521 1522 1525 1528 1530 1532 1534 1536 1537 1538 1538 1538 1538 1538 1539 1540 1541 1543 1543 1544 1545 1546 1546 1546 1546 1546 1546 1547 1547 1548 1549 1550 1554 1555 1552 1550 1550 1550 1551 1551 1551
1522 1523 1522 1523 1525 1528 1529 1533 1535 1536 1537 1538 1539 1539 1539 1539 1540 1541 1542 1543 1544 1545 1546 1547 1548 1548 1548 1548 1548 1549 1550 1550 1551 1553 1554 1554 1555 1552 1552 1552 1552 1552 1552
1523 1526 1522 1523 1525 1528 1531 1533 1536 1538 1539 1539 1539 1540 1540 1540 1541 1542 1543 1544 1545 1546 1547 1548 1549 1549 1549 1550 1550 1551 1551 1552 1553 1556 1555 1555 1554 1553 1552 1553 1553 1554 1553
1524 1525 1523 1524 1526 1528 1531 1534 1537 1538 1540 1540 1540 1541 1541 1542 1542 1543 1544 1545 1547 1548 1548 1549 1550 1551 1551 1551 1551 1552 1552 1553 1555 1557 1556 1556 1554 1554 1554 1554 1554 1554 1554
1524 1525 1523 1524 1527 1529 1531 1533 1537 1539 1540 1540 1541 1542 1543 1544 1544 1545 1545 1547 1548 1550 1550 1550 1551 1551 1552 1552 1552 1553 1553 1554 1556 1556 1555 1555 1555 1554 1554 1554 1554 1554 1554
1525 1526 1525 1525 1527 1529 1531 1533 1536 1539 1541 1541 1542 1543 1544 1545 1546 1547 1548 1549 1550 1551 1551 1552 1553 1553 1553 1554 1554 1554 1554 1555 1556 1555 1556 1556 1554 1554 1554 1555 1555 1555 1554
1525 1527 1528 1529 1528 1529 1531 1533 1535 1538 1540 1542 1543 1544 1545 1545 1546 1547 1549 1550 1551 1552 1552 1553 1554 1554 1554 1554 1554 1554 1555 1555 1555 1555 1556 1554 1554 1554 1555 1555 1556 1555 1554
1524 1526 1530 1531 1531 1532 1533 1533 1535 1538 1540 1541 1542 1544 1545 1547 1547 1548 1548 1550 1551 1552 1552 1553 1554 1555 1555 1555 1555 1555 1555 1556 1556 1556 1557 1555 1554 1555 1555 1554 1555 1555 1555
1520 1525 1529 1532 1532 1533 1535 1534 1535 1538 1539 1540 1542 1542 1545 1548 1548 1549 1549 1549 1551 1551 1552 1553 1554 1555 1555 1555 1555 1555 1555 1556 1557 1557 1555 1555 1555 1555 1554 1555 1555 1554 1554
1520 1521 1524 1529 1532 1533 1535 1536 1536 1538 1539 1542 1542 1543 1545 1548 1548 1549 1548 1549 1550 1551 1551 1553 1554 1554 1555 1555 1555 1555 1555 1555 1557 1556 1554 1554 1554 1554 1554 1554 1554 1554 1554
1518 1519 1521 1524 1529 1531 1533 1535 1537 1538 1538 1540 1541 1544 1544 1546 1546 1547 1548 1549 1550 1550 1552 1551 1552 1553 1553 1554 1554 1554 1554 1554 1555 1556 1552 1552 1551 1553 1553 1552 1552 1552 1553
1517 1517 1519 1522 1524 1529 1531 1533 1535 1536 1536 1537 1538 1540 1542 1543 1543 1546 1547 1548 1549 1549 1551 1550 1550 1551 1551 1552 1553 1553 1553 1553 1554 1554 1550 1551 1550 1551 1551 1551 1552 1552 1552
1516 1516 1517 1519 1522 1524 1527 1529 1530 1533 1535 1535 1535 1536 1538 1540 1542 1544 1545 1545 1547 1547 1548 1548 1547 1548 1549 1549 1550 1550 1550 1551 1552 1552 1550 1548 1549 1549 1549 1549 1550 1551 1551
1516 1518 1519 1518 1518 1519 1522 1524 1527 1528 1529 1531 1532 1533 1534 1535 1537 1538 1540 1541 1543 1545 1546 1547 1546 1546 1546 1546 1546 1547 1548 1548 1548 1549 1549 1546 1546 1547 1547 1547 1548 1549 1549
1513 1514 1516 1517 1516 1516 1518 1520 1523 1526 1526 1527 1528 1530 1531 1531 1532 1533 1535 1534 1536 1539 1541 1543 1542 1542 1543 1543 1543 1542 1543 1544 1545 1545 1546 1546 1545 1544 1545 1545 1546 1547 1548
1508 1510 1512 1513 1515 1515 1516 1516 1518 1521 1523 1524 1525 1526 1527 1527 1528 1529 1531 1531 1529 1532 1534 1536 1536 1538 1538 1539 1540 1540 1540 1540 1541 1542 1542 1543 1544 1543 1543 1543 1544 1545 1545
1503 1504 1507 1509 1510 1512 1514 1513 1511 1513 1516 1519 1521 1522 1522 1522 1522 1523 1524 1527 1525 1526 1528 1529 1530 1532 1534 1535 1536 1536 1536 1537 1538 1538 1538 1539 1540 1540 1540 1539 1541 1541 1542
1498 1499 1501 1502 1505 1507 1507 1508 1505 1506 1509 1510 1512 1515 1515 1516 1517 1518 1518 1520 1522 1520 1522 1523 1525 1526 1528 1529 1531 1532 1532 1532 1533 1533 1534 1534 1535 1535 1536 1536 1538 1537 1539
1492 1493 1495 1496 1498 1499 1501 1502 1503 1500 1500 1501 1503 1505 1507 1508 1508 1510 1511 1512 1514 1514 1515 1516 1518 1520 1521 1522 1524 1527 1528 1528 1526 1527 1529 1530 1530 1531 1531 1532 1533 1534 1534
1487 1487 1488 1489 1491 1492 1493 1495 1495 1496 1496 1495 1494 1495 1498 1500 1502 1504 1505 1505 1507 1508 1508 1509 1511 1512 1514 1516 1518 1520 1521 1520 1520 1521 1522 1523 1525 1525 1526 1526 1528 1529 1530
1485 1485 1485 1484 1485 1485 1487 1488 1488 1489 1490 1491 1492 1491 1491 1492 1493 1496 1498 1498 1499 1500 1500 1502 1503 1505 1508 1508 1513 1513 1512 1513 1515 1517 1517 1517 1518 1518 1519 1521 1522 1524 1525
1484 1484 1483 1482 1482 1482 1482 1482 1482 1483 1484 1486 1487 1487 1487 1486 1485 1487 1490 1492 1491 1493 1494 1496 1497 1496 1498 1500 1502 1505 1507 1508 1509 1509 1509 1510 1511 1511 1512 1515 1515 1518 1519
1483 1482 1481 1480 1480 1480 1479 1478 1477 1477 1480 1482 1482 1482 1482 1482 1481 1480 1481 1483 1484 1485 1486 1487 1488 1489 1491 1492 1494 1496 1497 1498 1499 1502 1503 1503 1503 1505 1506 1508 1509 1510 1512